Tri-Cities, TN

1:32 PM EDT on March 24, 2017 (GMT -0400)
Tri-Cities Regional Tennessee / Virginia

Weather History for KTRI - August, 2014

Change the Weather History Date:

Monday, August 18, 2014

  Actual Average Record
Temperature  
Mean Temperature 75 °F 74 °F  
Max Temperature 80 °F 85 °F 101 °F (1988)
Min Temperature 69 °F 63 °F 53 °F (1943)
Degree Days  
Heating Degree Days 0 0  
Month to date heating degree days 0 0  
Since 1 June heating degree days 0 11  
Since 1 July heating degree days 0 0  
Cooling Degree Days 10 9  
Month to date cooling degree days 128 164  
Year to date cooling degree days 816 742  
Since 1 June cooling degree days 682 669  
Growing Degree Days 24 (Base 50)    
Moisture  
Dew Point 67 °F    
Average Humidity 79    
Maximum Humidity 90    
Minimum Humidity 67    
Precipitation  
Precipitation 0.39 in 0.11 in 2.04 in (2015)
Month to date precipitation 1.86 2.16  
Year to date precipitation 22.69 28.14  
Snow  
Snow 0.00 in 0.00 in - ()
Month to date snowfall 0.0 0.0  
Since 1 June snowfall 0.0 0.0  
Since 1 July snowfall 0.0 0.0  
Snow Depth 0.00 in    
Sea Level Pressure  
Sea Level Pressure 29.89 in    
Wind  
Wind Speed 7 mph (SW)    
Max Wind Speed 23 mph    
Max Gust Speed 32 mph    
Visibility 6 miles    
Events Rain , Thunderstorm    
T = Trace of Precipitation, MM = Missing Value Source: NWS Daily Summary

Daily Weather History Graph

Daily Weather History Graph

Search for Another Location

Airport or City:

Trip Planner

Search our weather history database for the weather conditions in past years. The results will help you decide how hot, cold, wet, or windy it might be!

Date:

Astronomy

Aug. 18, 2014 Rise Set
Actual Time 6:49 AM EDT 8:16 PM EDT
Civil Twilight 6:22 AM EDT 8:43 PM EDT
Nautical Twilight 5:49 AM EDT 9:16 PM EDT
Astronomical Twilight 5:15 AM EDT 9:50 PM EDT
Moon 12:58 AM EDT (8/18) 3:16 PM EDT (8/18)
Length of Visible Light 14h 21m
Length of Day
13h 26m
Last Quarter, 38% of the Moon is Illuminated
Aug 18
Last Quarter
Aug 25
New
Sep 2
First Quarter
Sep 8
Full
Sep 15
Last Quarter

Hourly Weather History & Observations

Time (EDT) Temp. Heat Index Dew Point Humidity Pressure Visibility Wind Dir Wind Speed Gust Speed Precip Events Conditions
12:53 AM 70.0 °F - 68.0 °F 93% 29.92 in 2.5 mi Calm Calm - 0.00 in   Overcast
1:53 AM 70.0 °F - 66.9 °F 90% 29.91 in 4.0 mi Calm Calm - 0.00 in   Mostly Cloudy
2:53 AM 70.0 °F - 66.9 °F 90% 29.90 in 2.5 mi Calm Calm - 0.03 in Rain Rain
3:48 AM 69.8 °F - 66.2 °F 88% 29.96 in 1.5 mi Calm Calm - 0.02 in Rain Light Rain
3:53 AM 69.1 °F - 66.9 °F 93% 29.88 in 1.5 mi Calm Calm - 0.02 in   Overcast
4:17 AM 70.0 °F - 66.9 °F 90% 29.95 in 2.0 mi Calm Calm - N/A   Overcast
4:53 AM 69.1 °F - 66.9 °F 93% 29.87 in 2.0 mi Calm Calm - N/A Rain Light Rain
5:25 AM 70.0 °F - 66.9 °F 90% 29.95 in 4.0 mi Calm Calm - 0.02 in Rain , Thunderstorm Light Thunderstorms and Rain
5:42 AM 70.0 °F - 68.0 °F 93% 29.95 in 1.8 mi Calm Calm - 0.05 in Rain , Thunderstorm Heavy Thunderstorms and Rain
5:53 AM 70.0 °F - 66.9 °F 90% 29.87 in 1.8 mi Calm Calm - 0.06 in Rain , Thunderstorm Light Thunderstorms and Rain
6:27 AM 69.8 °F - 66.2 °F 88% 29.93 in 2.0 mi Calm Calm - N/A   Overcast
6:46 AM 70.0 °F - 66.9 °F 90% 29.94 in 1.0 mi Calm Calm - 0.01 in Rain , Thunderstorm Heavy Thunderstorms and Rain
6:53 AM 69.1 °F - 66.9 °F 93% 29.86 in 1.5 mi SSE 4.6 mph - 0.25 in Rain , Thunderstorm Light Thunderstorms and Rain
7:15 AM 70.0 °F - 66.9 °F 90% 29.94 in 2.0 mi SSE 3.5 mph - 0.01 in   Overcast
7:34 AM 70.0 °F - 66.9 °F 90% 29.95 in 3.0 mi South 3.5 mph - 0.01 in   Overcast
7:53 AM 70.0 °F - 66.9 °F 90% 29.87 in 4.0 mi Calm Calm - 0.01 in   Overcast
8:20 AM 71.1 °F - 66.9 °F 87% 29.94 in 4.0 mi Calm Calm - N/A   Overcast
8:53 AM 71.1 °F - 68.0 °F 90% 29.86 in 4.0 mi SSE 4.6 mph - N/A   Overcast
9:23 AM 72.0 °F - 68.0 °F 87% 29.93 in 4.0 mi SSW 4.6 mph - N/A   Overcast
9:53 AM 72.0 °F - 69.1 °F 91% 29.87 in 4.0 mi WSW 5.8 mph - 0.00 in Rain Light Rain
10:53 AM 75.0 °F - 68.0 °F 79% 29.87 in 10.0 mi WSW 16.1 mph 24.2 mph 0.00 in   Overcast
11:53 AM 73.9 °F - 68.0 °F 82% 29.88 in 10.0 mi WSW 11.5 mph - 0.00 in   Overcast
12:20 PM 73.0 °F - 69.1 °F 87% 29.94 in 4.0 mi WSW 17.3 mph - 0.02 in Rain Light Rain
12:53 PM 73.0 °F - 69.1 °F 87% 29.87 in 10.0 mi WSW 15.0 mph - 0.02 in   Overcast
1:07 PM 75.0 °F - 69.1 °F 82% 29.93 in 10.0 mi SW 19.6 mph - N/A   Overcast
1:53 PM 73.9 °F - 68.0 °F 82% 29.86 in 10.0 mi WSW 17.3 mph 25.3 mph N/A   Overcast
2:26 PM 77.0 °F - 66.0 °F 69% 29.92 in 10.0 mi WSW 17.3 mph 26.5 mph N/A   Overcast
2:53 PM 77.0 °F - 66.0 °F 69% 29.84 in 10.0 mi SW 17.3 mph 26.5 mph N/A   Mostly Cloudy
3:53 PM 77.0 °F - 66.9 °F 71% 29.82 in 10.0 mi WSW 15.0 mph 23.0 mph N/A   Mostly Cloudy
4:20 PM 78.1 °F - 68.0 °F 71% 29.88 in 10.0 mi WSW 11.5 mph - N/A   Mostly Cloudy
4:43 PM 78.1 °F - 68.0 °F 71% 29.88 in 10.0 mi West 8.1 mph - N/A   Mostly Cloudy
4:53 PM 78.1 °F - 68.0 °F 71% 29.81 in 10.0 mi WNW 8.1 mph - N/A   Mostly Cloudy
5:25 PM 80.1 °F 82.7 °F 68.0 °F 67% 29.87 in 10.0 mi Variable 6.9 mph - N/A   Mostly Cloudy
5:53 PM 79.0 °F - 66.9 °F 66% 29.80 in 10.0 mi WSW 10.4 mph - N/A   Mostly Cloudy
6:53 PM 78.1 °F - 66.0 °F 66% 29.80 in 10.0 mi SW 13.8 mph - N/A   Mostly Cloudy
7:53 PM 77.0 °F - 66.9 °F 71% 29.81 in 10.0 mi SW 8.1 mph - N/A   Mostly Cloudy
8:53 PM 75.9 °F - 66.9 °F 74% 29.83 in 10.0 mi Variable 3.5 mph - N/A   Mostly Cloudy
9:53 PM 73.0 °F - 66.0 °F 79% 29.83 in 10.0 mi WSW 3.5 mph - N/A   Scattered Clouds
10:53 PM 72.0 °F - 66.0 °F 81% 29.82 in 10.0 mi West 4.6 mph - N/A   Scattered Clouds
11:53 PM 71.6 °F - 66.2 °F 83% 29.90 in 10.0 mi SW 5.8 mph - N/A   Overcast